"Period start","avg(HW err(1)/warn(2) (#))","avg(Visibility (m))","avg(Weather code (#))","avg(Precip intensity (mm/h))","min(HW err(1)/warn(2) (#))","max(HW err(1)/warn(2) (#))","std(HW err(1)/warn(2) (#))","med(HW err(1)/warn(2) (#))","min(Visibility (m))","max(Visibility (m))","std(Visibility (m))","med(Visibility (m))","min(Weather code (#))","max(Weather code (#))","std(Weather code (#))","med(Weather code (#))","min(Precip intensity (mm/h))","max(Precip intensity (mm/h))","std(Precip intensity (mm/h))","med(Precip intensity (mm/h))"
2016-05-09 00:00:00,2,37712,59,0.02,2,2,0,2,10004,50000,11272,40874,41,71,15,71,0.00,0.10,0.03,0.00
2016-05-09 00:10:00,2,7213,71,1.00,2,2,0,2,3211,17853,3931,6383,71,71,0,71,0.00,2.05,0.62,0.95
2016-05-09 00:20:00,2,21744,57,0.38,2,2,0,2,6087,46017,13429,18960,0,71,28,71,0.00,1.35,0.48,0.10
2016-05-09 00:30:00,2,34436,64,0.03,2,2,0,2,18753,45108,8777,35794,41,77,15,71,0.00,0.15,0.05,0.00
2016-05-09 00:40:00,2,41092,8,0.00,2,2,0,2,17783,50000,10159,46134,0,77,23,0,0.00,0.00,0.00,0.00
2016-05-09 00:50:00,2,21720,57,0.20,2,2,0,2,11772,41133,9167,16656,0,71,28,71,0.00,0.60,0.17,0.17
2016-05-09 01:00:00,2,33140,72,0.09,2,2,0,2,12556,46887,10474,37320,71,77,2,71,0.00,0.40,0.12,0.05
2016-05-09 01:10:00,2,19001,71,0.34,2,2,0,2,7407,35711,9733,17710,71,71,0,71,0.00,1.45,0.42,0.12
2016-05-09 01:20:00,2,25938,71,0.17,2,2,0,2,5288,47948,11954,23848,71,71,0,71,0.00,0.90,0.26,0.08
2016-05-09 01:30:00,2,42522,11,0.01,2,2,0,2,27355,50000,7751,43922,0,71,23,0,0.00,0.10,0.03,0.00
2016-05-09 01:40:00,2,27308,71,0.28,2,2,0,2,7372,50000,13488,28870,71,71,0,71,0.00,1.20,0.36,0.12
2016-05-09 01:50:00,2,41247,36,0.01,2,2,0,2,24853,50000,9966,45644,0,71,36,36,0.00,0.05,0.02,0.00
2016-05-09 02:00:00,2,30167,36,0.23,2,2,0,2,2975,48457,15584,32855,0,71,36,36,0.00,1.40,0.44,0.00
2016-05-09 02:10:00,2,24894,71,0.17,2,2,0,2,5916,49511,14671,21644,71,71,0,71,0.00,0.95,0.27,0.08
2016-05-09 02:20:00,2,44098,37,0.00,2,2,0,2,36413,50000,4471,46278,0,77,37,36,0.00,0.00,0.00,0.00
2016-05-09 02:30:00,2,25759,73,0.12,2,2,0,2,13456,38008,9589,27968,71,77,3,71,0.00,0.25,0.08,0.10
2016-05-09 02:40:00,2,33887,74,0.02,2,2,0,2,21194,46308,6332,34256,71,77,3,74,0.00,0.10,0.03,0.00
2016-05-09 02:50:00,2,32080,73,0.10,2,2,0,2,24596,43338,5748,29555,71,77,3,71,0.00,0.35,0.11,0.05
2016-05-09 03:00:00,2,48682,7,0.00,2,2,0,2,43231,50000,2228,50000,0,71,21,0,0.00,0.00,0.00,0.00
2016-05-09 03:10:00,2,34688,52,0.04,2,2,0,2,14590,50000,12062,34726,0,77,34,71,0.00,0.20,0.06,0.00
2016-05-09 03:20:00,2,33090,71,0.05,2,2,0,2,16714,40845,6531,35237,71,71,0,71,0.00,0.10,0.04,0.05
2016-05-09 03:30:00,2,22952,71,0.39,2,2,0,2,5108,44305,13529,19765,71,71,0,71,0.00,1.60,0.57,0.12
2016-05-09 03:40:00,2,31649,43,0.02,2,2,0,2,14436,50000,10876,29240,0,71,35,71,0.00,0.10,0.03,0.00
2016-05-09 03:50:00,2,23678,43,0.41,2,2,0,2,5898,44076,13555,29374,0,71,35,71,0.00,1.40,0.53,0.03
2016-05-09 04:00:00,2,17799,71,0.51,2,2,0,2,6101,30967,9539,17328,71,71,0,71,0.00,1.35,0.46,0.35
2016-05-09 04:10:00,2,25485,71,0.31,2,2,0,2,5390,45546,13350,26255,71,71,0,71,0.00,1.55,0.49,0.08
2016-05-09 04:20:00,2,33632,71,0.07,2,2,0,2,20112,44091,7812,33454,71,71,0,71,0.00,0.35,0.10,0.05
2016-05-09 04:30:00,2,21710,71,0.26,2,2,0,2,9933,46826,11703,18591,71,71,0,71,0.00,0.75,0.25,0.15
2016-05-09 04:40:00,2,11060,71,0.61,2,2,0,2,6655,21239,4592,8222,71,71,0,71,0.20,1.35,0.36,0.53
2016-05-09 04:50:00,2,16975,71,0.45,2,2,0,2,4913,29559,8528,17650,71,71,0,71,0.00,1.80,0.53,0.30
2016-05-09 05:00:00,2,26254,62,0.00,2,2,0,2,18458,44796,7571,24464,41,71,14,71,0.00,0.00,0.00,0.00
2016-05-09 05:10:00,2,22928,68,0.10,2,2,0,2,13550,33368,6497,22536,41,71,9,71,0.00,0.35,0.13,0.00
2016-05-09 05:20:00,2,28766,76,0.02,2,2,0,2,19874,42803,7800,26726,71,77,2,77,0.00,0.05,0.02,0.00
2016-05-09 05:30:00,2,27743,8,0.00,2,2,0,2,21766,31445,3085,28590,0,77,23,0,0.00,0.00,0.00,0.00
2016-05-09 05:40:00,2,26164,60,0.01,2,2,0,2,17535,37424,7409,26000,0,77,30,77,0.00,0.05,0.02,0.00
2016-05-09 05:50:00,2,22288,71,0.13,2,2,0,2,13433,31540,5236,22048,71,71,0,71,0.00,0.70,0.20,0.08
2016-05-09 06:00:00,2,20338,73,0.17,2,2,0,2,12392,34786,7725,18380,71,77,3,71,0.00,0.45,0.16,0.17
2016-05-09 06:10:00,2,13010,71,0.57,2,2,0,2,4380,19166,4962,13822,71,71,0,71,0.00,2.80,0.85,0.20
2016-05-09 06:20:00,2,13918,71,0.70,2,2,0,2,4985,25998,6542,13958,71,71,0,71,0.00,2.95,0.92,0.38
2016-05-09 06:30:00,2,10922,71,0.70,2,2,0,2,4688,16304,3579,10582,71,71,0,71,0.15,1.80,0.62,0.50
2016-05-09 06:40:00,2,12259,71,0.62,2,2,0,2,5417,21576,5713,11646,71,71,0,71,0.00,1.25,0.42,0.53
2016-05-09 06:50:00,2,18642,71,0.26,2,2,0,2,9253,25456,5272,18860,71,71,0,71,0.00,0.80,0.24,0.20
2016-05-09 07:00:00,2,21326,71,0.12,2,2,0,2,15310,32000,4756,20260,71,71,0,71,0.00,0.60,0.18,0.05
2016-05-09 07:10:00,2,20249,71,0.30,2,2,0,2,8552,44081,11153,17356,71,71,0,71,0.00,1.05,0.38,0.08
2016-05-09 07:20:00,2,22351,71,0.38,2,2,0,2,6183,37913,11310,26264,71,71,0,71,0.00,1.25,0.42,0.23
2016-05-09 07:30:00,2,20475,71,0.42,2,2,0,2,6716,43662,13014,17038,71,71,0,71,0.00,1.05,0.40,0.28
2016-05-09 07:40:00,2,17566,71,0.45,2,2,0,2,10112,25693,5053,17536,71,71,0,71,0.10,0.75,0.21,0.47
2016-05-09 07:50:00,2,21283,71,0.42,2,2,0,2,5152,42084,11114,20480,71,71,0,71,0.00,1.60,0.48,0.25
2016-05-09 08:00:00,2,26958,71,0.21,2,2,0,2,7933,40733,10578,30589,71,71,0,71,0.00,1.15,0.34,0.05
2016-05-09 08:10:00,2,20778,71,0.44,2,2,0,2,6455,37626,11008,15498,71,71,0,71,0.00,1.30,0.45,0.20
2016-05-09 08:20:00,2,26131,71,0.32,2,2,0,2,8715,50000,14424,20988,71,71,0,71,0.00,1.45,0.47,0.10
2016-05-09 08:30:00,2,32763,74,0.03,2,2,0,2,24620,45331,6086,32252,71,77,3,74,0.00,0.05,0.03,0.03
2016-05-09 08:40:00,2,44918,38,0.00,2,2,0,2,32051,50000,5391,45826,0,77,38,36,0.00,0.00,0.00,0.00
2016-05-09 08:50:00,2,36102,36,0.07,2,2,0,2,15195,50000,14128,42627,0,71,36,36,0.00,0.30,0.11,0.00
2016-05-09 09:00:00,2,10063,71,0.69,2,2,0,2,4928,19482,4447,8691,71,71,0,71,0.05,0.95,0.31,0.88
2016-05-09 09:10:00,2,18106,71,0.35,2,2,0,2,7180,37433,9294,16164,71,71,0,71,0.00,0.80,0.25,0.33
2016-05-09 09:20:00,2,15633,71,0.41,2,2,0,2,6597,22669,4764,15265,71,71,0,71,0.05,1.00,0.29,0.45
2016-05-09 09:30:00,2,14314,71,0.66,2,2,0,2,4083,29551,8940,11569,71,71,0,71,0.00,2.55,0.72,0.45
2016-05-09 09:40:00,2,20887,71,0.36,2,2,0,2,8664,33965,7983,18858,71,71,0,71,0.05,1.00,0.33,0.25
2016-05-09 09:50:00,2,15882,71,0.59,2,2,0,2,5246,43843,10459,14556,71,71,0,71,0.15,1.85,0.57,0.25
2016-05-09 10:00:00,2,22723,71,0.58,2,2,0,2,5700,50000,17833,12722,71,71,0,71,0.00,1.80,0.65,0.28
2016-05-09 10:10:00,2,31681,71,0.12,2,2,0,2,17705,50000,10466,31170,71,71,0,71,0.00,0.45,0.13,0.10
2016-05-09 10:20:00,2,24759,71,0.17,2,2,0,2,8888,40554,9512,24940,71,71,0,71,0.00,0.35,0.11,0.17
2016-05-09 10:30:00,2,17095,71,0.30,2,2,0,2,6485,25289,5789,17654,71,71,0,71,0.00,1.15,0.35,0.17
2016-05-09 10:40:00,2,33494,71,0.07,2,2,0,2,19139,49978,10062,31446,71,71,0,71,0.00,0.20,0.08,0.03
2016-05-09 10:50:00,2,27087,71,0.17,2,2,0,2,12288,45011,11971,22292,71,71,0,71,0.00,0.55,0.19,0.10
2016-05-09 11:00:00,2,35038,71,0.04,2,2,0,2,22209,43501,6251,35888,71,71,0,71,0.00,0.30,0.09,0.00
2016-05-09 11:10:00,2,37671,72,0.02,2,2,0,2,18926,50000,10549,42098,71,77,2,71,0.00,0.10,0.03,0.00
2016-05-09 11:20:00,2,33452,71,0.04,2,2,0,2,21568,44410,8657,32378,71,71,0,71,0.00,0.20,0.06,0.03
2016-05-09 11:30:00,2,24870,71,0.23,2,2,0,2,4764,42368,11007,25426,71,71,0,71,0.00,0.80,0.25,0.15
2016-05-09 11:40:00,2,35550,71,0.07,2,2,0,2,13195,50000,12986,39273,71,71,0,71,0.00,0.30,0.09,0.05
2016-05-09 11:50:00,2,18143,71,0.44,2,2,0,2,4067,37374,10186,16320,71,71,0,71,0.05,1.40,0.43,0.22
2016-05-09 12:00:00,2,22669,71,0.34,2,2,0,2,5523,42062,11328,26536,71,71,0,71,0.00,1.80,0.53,0.12
2016-05-09 12:10:00,2,20143,71,0.45,2,2,0,2,8007,37346,10353,15960,71,71,0,71,0.00,1.05,0.35,0.42
2016-05-09 12:20:00,2,31489,50,0.26,2,2,0,2,5464,50000,16526,32325,0,71,33,71,0.00,1.05,0.34,0.08
2016-05-09 12:30:00,2,22685,64,0.33,2,2,0,2,7456,41908,10256,22858,0,71,21,71,0.00,0.95,0.33,0.28
2016-05-09 12:40:00,2,12720,71,0.57,2,2,0,2,3625,20886,5021,13114,71,71,0,71,0.10,1.20,0.37,0.57
2016-05-09 12:50:00,2,18934,71,0.39,2,2,0,2,6478,30304,7806,19836,71,71,0,71,0.00,1.00,0.36,0.27
2016-05-09 13:00:00,2,16027,71,0.32,2,2,0,2,11742,21858,3292,15622,71,71,0,71,0.05,0.55,0.14,0.33
2016-05-09 13:10:00,2,22904,71,0.21,2,2,0,2,14867,32640,5255,21531,71,71,0,71,0.05,0.55,0.15,0.17
2016-05-09 13:20:00,2,28252,71,0.24,2,2,0,2,14301,46364,10362,25478,71,71,0,71,0.00,1.10,0.33,0.12
2016-05-09 13:30:00,2,39481,71,0.08,2,2,0,2,33214,48336,4175,39240,71,71,0,71,0.00,0.45,0.13,0.05
2016-05-09 13:40:00,2,37157,71,0.06,2,2,0,2,30429,47007,5478,35739,71,71,0,71,0.00,0.15,0.05,0.05
2016-05-09 13:50:00,2,32232,71,0.17,2,2,0,2,16776,44239,9670,35382,71,71,0,71,0.00,0.80,0.23,0.08
2016-05-09 14:00:00,2,27116,71,0.18,2,2,0,2,16026,37134,6699,27062,71,71,0,71,0.05,0.55,0.18,0.10
2016-05-09 14:10:00,2,17973,71,0.29,2,2,0,2,12593,23459,3566,17980,71,71,0,71,0.05,0.65,0.20,0.25
2016-05-09 14:20:00,2,13515,71,0.57,2,2,0,2,8432,22910,3904,13173,71,71,0,71,0.10,1.05,0.32,0.53
2016-05-09 14:30:00,2,41009,71,0.02,2,2,0,2,30304,50000,7378,40766,71,71,0,71,0.00,0.05,0.02,0.00
2016-05-09 14:40:00,2,48035,75,0.03,2,2,0,2,43096,50000,2452,49347,71,77,3,77,0.00,0.10,0.03,0.03
2016-05-09 14:50:00,2,34510,72,0.15,2,2,0,2,22631,48247,7415,34395,71,77,2,71,0.00,0.60,0.17,0.12
2016-05-09 15:00:00,2,34078,71,0.15,2,2,0,2,14983,48557,12175,35290,71,71,0,71,0.00,0.65,0.21,0.05
2016-05-09 15:10:00,2,32544,71,0.07,2,2,0,2,19531,41047,6341,34510,71,71,0,71,0.00,0.20,0.06,0.08
2016-05-09 15:20:00,2,33136,71,0.05,2,2,0,2,26082,38986,4268,33654,71,71,0,71,0.00,0.20,0.07,0.00
2016-05-09 15:30:00,2,23403,71,0.16,2,2,0,2,18655,32917,4099,22456,71,71,0,71,0.00,0.35,0.11,0.12
2016-05-09 15:40:00,2,20402,71,0.35,2,2,0,2,12964,33615,6159,19430,71,71,0,71,0.10,0.75,0.22,0.28
2016-05-09 15:50:00,2,20533,71,0.17,2,2,0,2,10831,26422,5066,21960,71,71,0,71,0.05,0.45,0.15,0.12
2016-05-09 16:00:00,2,8984,71,0.82,2,2,0,2,7242,11498,1301,8874,71,71,0,71,0.50,1.05,0.19,0.85
2016-05-09 16:10:00,2,7576,71,0.95,2,2,0,2,5100,10501,1738,7315,71,71,0,71,0.45,1.95,0.41,0.88
2016-05-09 16:20:00,2,8472,71,0.93,2,2,0,2,5489,16530,3093,7842,71,71,0,71,0.50,1.45,0.30,0.90
2016-05-09 16:30:00,2,6875,71,1.08,2,2,0,2,4705,13255,2245,6486,71,71,0,71,0.40,1.55,0.39,1.15
2016-05-09 16:40:00,2,5926,71,1.45,2,2,0,2,4261,8267,1247,5657,71,71,0,71,0.65,2.25,0.61,1.60
2016-05-09 16:50:00,2,5253,71,1.51,2,2,0,2,3327,7082,1404,5164,71,71,0,71,1.10,2.20,0.32,1.40
2016-05-09 17:00:00,2,5191,71,1.57,2,2,0,2,3577,7758,1182,4864,71,71,0,71,0.75,2.15,0.40,1.70
2016-05-09 17:10:00,2,5670,71,1.42,2,2,0,2,4788,6884,739,5593,71,71,0,71,0.85,1.85,0.37,1.58
2016-05-09 17:20:00,2,5852,71,1.02,2,2,0,2,4877,7526,921,5574,71,71,0,71,0.70,1.25,0.17,1.05
2016-05-09 17:30:00,2,7582,71,0.94,2,2,0,2,5576,11195,1656,7366,71,71,0,71,0.45,1.75,0.43,0.82
2016-05-09 17:40:00,2,9026,71,0.72,2,2,0,2,6845,11112,1327,9406,71,71,0,71,0.30,1.10,0.25,0.75
2016-05-09 17:50:00,2,7295,71,0.99,2,2,0,2,5600,10064,1221,7255,71,71,0,71,0.25,1.90,0.42,1.10
2016-05-09 18:00:00,2,8214,71,0.72,2,2,0,2,4604,13992,2631,8438,71,71,0,71,0.20,1.75,0.42,0.68
2016-05-09 18:10:00,2,6884,71,1.12,2,2,0,2,4734,8283,1213,7066,71,71,0,71,0.55,1.95,0.39,1.10
2016-05-09 18:20:00,2,6430,71,1.38,2,2,0,2,4975,8010,856,6287,71,71,0,71,0.35,2.25,0.48,1.43
2016-05-09 18:30:00,2,6289,71,0.97,2,2,0,2,4441,9147,1475,5896,71,71,0,71,0.50,1.90,0.39,0.93
2016-05-09 18:40:00,2,6497,71,0.96,2,2,0,2,4328,9323,1766,5980,71,71,0,71,0.40,2.20,0.49,0.85
2016-05-09 18:50:00,2,6657,71,1.05,2,2,0,2,5136,10051,1287,6385,71,71,0,71,0.35,1.70,0.41,1.00
2016-05-09 19:00:00,2,6806,71,0.99,2,2,0,2,4677,9176,1273,6984,71,71,0,71,0.50,1.95,0.46,0.93
2016-05-09 19:10:00,2,7597,71,0.87,2,2,0,2,5519,13417,2098,7172,71,71,0,71,0.15,1.15,0.30,0.95
2016-05-09 19:20:00,2,6206,71,1.12,2,2,0,2,4179,8912,1426,6016,71,71,0,71,0.40,1.75,0.34,1.15
2016-05-09 19:30:00,2,7133,71,0.96,2,2,0,2,5012,9430,1456,7000,71,71,0,71,0.40,1.30,0.27,1.05
2016-05-09 19:40:00,2,6342,71,1.21,2,2,0,2,4820,8831,1239,6116,71,71,0,71,0.60,1.85,0.39,1.23
2016-05-09 19:50:00,2,5860,71,1.34,2,2,0,2,4716,6978,613,5845,71,71,0,71,0.75,1.90,0.39,1.35
2016-05-09 20:00:00,2,5539,71,1.24,2,2,0,2,4502,7159,818,5428,71,71,0,71,0.80,2.00,0.43,1.05
2016-05-09 20:10:00,2,4731,71,1.80,2,2,0,2,3532,5842,634,4910,71,71,0,71,1.25,2.45,0.33,1.77
2016-05-09 20:20:00,2,3777,71,2.56,2,2,0,2,2526,6193,1126,3380,71,71,0,71,1.55,3.45,0.63,2.67
2016-05-09 20:30:00,2,4442,71,1.66,2,2,0,2,3898,5327,457,4314,71,71,0,71,1.20,2.10,0.30,1.58
2016-05-09 20:40:00,2,5469,71,1.16,2,2,0,2,4735,6281,505,5432,71,71,0,71,0.65,1.75,0.32,1.08
2016-05-09 20:50:00,2,7419,71,0.82,2,2,0,2,6042,9375,1080,7032,71,71,0,71,0.25,1.20,0.23,0.85
2016-05-09 21:00:00,2,8206,71,0.64,2,2,0,2,7132,9637,799,7969,71,71,0,71,0.35,1.05,0.23,0.62
2016-05-09 21:10:00,2,8735,71,0.71,2,2,0,2,7922,9707,507,8751,71,71,0,71,0.35,1.55,0.34,0.68
2016-05-09 21:20:00,2,9849,71,0.75,2,2,0,2,7249,16727,2754,8855,71,71,0,71,0.40,1.05,0.24,0.80
2016-05-09 21:30:00,2,9298,71,0.77,2,2,0,2,7334,12069,1520,8631,71,71,0,71,0.40,1.10,0.25,0.80
2016-05-09 21:40:00,2,9420,71,0.69,2,2,0,2,7160,12101,1546,9453,71,71,0,71,0.45,1.00,0.16,0.73
2016-05-09 21:50:00,2,9893,71,0.80,2,2,0,2,7634,12903,1805,10061,71,71,0,71,0.45,1.35,0.25,0.78
2016-05-09 22:00:00,2,9682,71,0.72,2,2,0,2,6836,12364,1717,9894,71,71,0,71,0.40,1.30,0.29,0.60
2016-05-09 22:10:00,2,8538,71,0.82,2,2,0,2,6415,11504,1546,8864,71,71,0,71,0.40,1.30,0.28,0.73
2016-05-09 22:20:00,2,7256,71,1.10,2,2,0,2,4658,10740,1599,7028,71,71,0,71,0.45,1.95,0.51,1.02
2016-05-09 22:30:00,2,9413,71,0.83,2,2,0,2,6948,13117,1892,8830,71,71,0,71,0.45,1.45,0.35,0.70
2016-05-09 22:40:00,2,9159,71,0.72,2,2,0,2,5278,12132,1945,9671,71,71,0,71,0.15,1.80,0.47,0.65
2016-05-09 22:50:00,2,9085,71,0.77,2,2,0,2,6410,12572,1642,8712,71,71,0,71,0.35,1.30,0.31,0.73
2016-05-09 23:00:00,2,8290,71,0.90,2,2,0,2,6210,10221,1321,8134,71,71,0,71,0.45,1.35,0.28,0.90
2016-05-09 23:10:00,2,8630,71,0.67,2,2,0,2,5816,10507,1560,9229,71,71,0,71,0.20,1.75,0.40,0.60
2016-05-09 23:20:00,2,8403,71,0.74,2,2,0,2,5901,13017,2178,7413,71,71,0,71,0.15,1.30,0.42,0.75
2016-05-09 23:30:00,2,8225,71,0.92,2,2,0,2,6463,13504,2071,7475,71,71,0,71,0.60,1.40,0.26,0.88
2016-05-09 23:40:00,2,11296,71,0.69,2,2,0,2,7230,21571,3843,9970,71,71,0,71,0.25,1.50,0.34,0.62
2016-05-09 23:50:00,2,11024,71,0.70,2,2,0,2,7762,13489,1959,11540,71,71,0,71,0.25,1.45,0.38,0.60
